Retour au catalogue

SL-12 DEB

ActifUNKNOWN
NORAD 21752·DEBRIS·🇷🇺 Russia

Lancé Dec 29, 1983 depuis Baikonur Cosmodrome

Loading…

Prochains Passages (prochaines 24 heures)

TLE

FraisSource: Space-Track

Époque: Sep 1, 2026, 15:08 UTC

1 21752U 83127J   26244.63089387  .00014474  00000-0  35565-1 0  9995
2 21752  54.0239 333.9401 1069994 311.5917  39.7904 11.95340186303253

Suivez SL-12 DEB en temps réel avec AllMySat

Download on the App Store